Regional Weather Roundup
Issued by NWS

Home | Current Version | Previous Version | Text Only | Print | Product List | Glossary Off
Versions: 1 2 3 4 5 6 7 8 9 10 11 12 13 14 15 16 17 18 19 20 21 22 23 24 25 26 27 28 29 30 31 32 33 34 35 36 37 38 39 40 41 42 43 44 45 46 47 48 49 50

000
ASUS43 KIND 211159
RWRIN

WEATHER ROUNDUP FOR INDIANA
NATIONAL WEATHER SERVICE INDIANAPOLIS IN
700 AM EST SUN DEC 21 2014

NOTE: "FAIR" INDICATES FEW OR NO CLOUDS BELOW 12,000 FEET WITH NO
SIGNIFICANT WEATHER AND/OR OBSTRUCTIONS TO VISIBILITY.

* - STATION DOES NOT REPORT WEATHER SUCH AS PRECIPITATION OR FOG.

+ - STATION NOT QUALITY CONTROLLED BY THE NATIONAL WEATHER SERVICE.
    USE DATA WITH CAUTION...ESPECIALLY DEWPOINT AND RELATIVE
    HUMIDITY OBSERVATIONS.

INZ001>003-010>013-019-020-211300-
NORTHWEST INDIANA

CITY           SKY/WX    TMP DP  RH WIND       PRES   REMARKS
GARY /AIRPORT/ CLOUDY    34  25  69 SE10      30.24S WCI  26
MONTICELLO +   CLOUDY    29  26  89 SE3       30.25F
VALPARAISO     NOT AVBL

$$

LMZ046-743>745-211300-
SOUTHERN LAKE MICHIGAN

STATION/POSITION TIME  TEMP WIND        PRES
                       AIR  DIR/SP/G
                 (UTC) (F)  (DEG/KT/KT) (MB)

$$

INZ004-005-014>016-021>024-211300-
NORTH CENTRAL INDIANA

CITY           SKY/WX    TMP DP  RH WIND       PRES   REMARKS
GOSHEN         CLOUDY    31  26  82 S7        30.27S HAZE    WCI  24
6HR MIN TEMP:  30; 6HR MAX TEMP:  31;

SOUTH BEND     CLOUDY    32  26  78 S7        30.26S WCI  26
6HR MIN TEMP:  31; 6HR MAX TEMP:  32;


$$

INZ006>009-017-018-025>027-211300-
NORTHEAST INDIANA

CITY           SKY/WX    TMP DP  RH WIND       PRES   REMARKS
ANGOLA *+      CLOUDY    28  27  93 S3        30.27S
FORT WAYNE     CLOUDY    29  26  89 S3        30.30R
6HR MIN TEMP:  29; 6HR MAX TEMP:  30;


$$

INZ028-029-035-036-043>045-051>053-211300-
WEST CENTRAL INDIANA

CITY           SKY/WX    TMP DP  RH WIND       PRES   REMARKS
GREENCASTLE +  FAIR      21  18  86 CALM      30.28R FOG
LAFAYETTE      MOCLDY    26  23  88 CALM      30.27R
6HR MIN TEMP:  26; 6HR MAX TEMP:  30;

TERRE HAUTE    MOCLDY    24  21  88 E5        30.29R WCI  18
6HR MIN TEMP:  22; 6HR MAX TEMP:  25;


$$

INZ030>032-037>040-046>048-054>057-064-065-211300-
CENTRAL INDIANA

CITY           SKY/WX    TMP DP  RH WIND       PRES   REMARKS
COLUMBUS       CLEAR     21  21 100 CALM      30.30  FOG
FRANKFORT +    MOCLDY    24  24 100 SE6       30.28S FOG     WCI  17
INDIANAPOLIS   PTCLDY    21  18  88 CALM      30.28R FOG
6HR MIN TEMP:  20; 6HR MAX TEMP:  25;

-EAGLE CREEK   CLEAR     19  17  92 CALM      30.28R FOG
6HR MIN TEMP:  19; 6HR MAX TEMP:  25;

KOKOMO *+      CLOUDY    28  27  93 SE6       30.28S WCI  22
MT COMFORT *+  CLEAR     21  21 100 CALM      30.29R
SHELBYVILLE    CLEAR     23  19  85 E7        30.28S FOG     WCI  15
6HR MIN TEMP:  22; 6HR MAX TEMP:  26;


$$

INZ033-034-041-042-049-050-058-059-211300-
EAST CENTRAL INDIANA

CITY           SKY/WX    TMP DP  RH WIND       PRES   REMARKS
MUNCIE         PTCLDY    24  21  88 S3        30.29S FOG
6HR MIN TEMP:  21; 6HR MAX TEMP:  25;


$$

INZ060-061-067>069-081>083-085>088-211300-
SOUTHWEST INDIANA

CITY           SKY/WX    TMP DP  RH WIND       PRES   REMARKS
EVANSVILLE     CLEAR     27  23  85 N5        30.29R FOG     WCI  22
6HR MIN TEMP:  25; 6HR MAX TEMP:  29;

HUNTINGBURG *+ CLEAR     21  18  86 NE6       30.29R WCI  14
6HR MIN TEMP:  21; 6HR MAX TEMP:  25;


$$

INZ062-063-066-070>080-084-089>092-211300-
SOUTH CENTRAL AND SOUTHEAST INDIANA

CITY           SKY/WX    TMP DP  RH WIND       PRES   REMARKS
BLOOMINGTON    CLEAR     20  17  88 CALM      30.27S
6HR MIN TEMP:  19; 6HR MAX TEMP:  23;


$$



USA.gov is the U.S. government's official web portal to all federal, state and local government web resources and services.